Location: Caltech
(34.1382°N, 118.1253°W)
Time: 03:10:19
(UTC-07:00)

Cosmos 1125 Rocket - Visible Passes

Search period start: 21 August 2017 00:00
Search period end: 31 August 2017 00:00
Orbit: 759 x 779 km, 74.0° (Epoch: 21 August)

Date Brightness Start Highest point End Pass type
(mag) Time Alt. Az. Time Alt. Az. Time Alt. Az.
21 Aug 6.4 01:39:32 10° NNE 01:40:22 12° NE 01:40:22 12° NE visible
21 Aug 5.6 03:19:22 10° NNW 03:20:36 17° NNW 03:20:36 17° NNW visible
22 Aug 5.9 02:42:36 10° NNW 02:43:46 17° N 02:43:46 17° N visible
23 Aug 6.2 02:06:08 10° N 02:07:02 15° N 02:07:02 15° N visible
24 Aug 6.4 01:30:01 10° NNE 01:30:23 12° NNE 01:30:23 12° NNE visible
